Regional Weather Roundup
Issued by NWS Cleveland, OH

Home | Current Version | Previous Version | Graphics & Text | Print | Product List | Glossary On
Versions: 1 2 3 4 5 6 7 8 9 10 11 12 13 14 15 16 17 18 19 20 21 22 23 24 25 26 27 28 29 30 31 32 33 34 35 36 37 38 39 40 41 42 43 44 45 46 47 48 49 50
000
ASUS41 KCLE 290502
RWRCLE
OHIO REGIONAL WEATHER ROUNDUP
NATIONAL WEATHER SERVICE CLEVELAND, OH
1200 AM EST MON DEC 29 2014

NOTE: "FAIR" INDICATES FEW OR NO CLOUDS BELOW 12,000 FEET WITH NO
SIGNIFICANT WEATHER AND/OR OBSTRUCTIONS TO VISIBILITY.

OHZ001>008-015>018-024>027-034-035-043-044-290600-
   NORTHWEST OHIO

CITY           SKY/WX    TMP DP  RH WIND       PRES   REMARKS
DEFIANCE       CLEAR     28  23  81 W3        30.23R
FINDLAY        CLEAR     27  24  89 W5        30.20R WCI  22
TOLEDO EXPRESS CLEAR     25  22  88 W3        30.21R
TOLEDO EXEC    CLEAR     26  21  81 W6        30.22R WCI  19
LIMA           CLEAR     30  25  81 W7        30.21R HAZE    WCI  23
$$

OHZ009>014-019>023-028>033-038-089-290600-
   NORTHEAST OHIO

CITY           SKY/WX    TMP DP  RH WIND       PRES   REMARKS
CLE-HOPKINS    PTCLDY    29  25  85 SW3       30.21R
CLE-LAKEFRONT  MOCLDY    35  26  69 NW10      30.18S WCI  27
CUY CO. ARPT   NOT AVBL
LORAIN-ELYRIA  CLEAR     28  25  88 W3        30.19S
ASHTABULA      CLOUDY    31  28  89 CALM      30.17R
AKRON-CANTON   MOCLDY    32  27  81 W6        30.16S WCI  26
WOOSTER        PTCLDY    30  26  85 NW5       30.18R WCI  25
MANSFIELD      PTCLDY    27  25  92 CALM      30.16F
YOUNGSTOWN     MOCLDY    30  26  85 W5        30.15S WCI  25
$$

OHZ042-051>053-060>062-070>072-077>081-290600-
  SOUTHWEST OHIO

CITY           SKY/WX    TMP DP  RH WIND       PRES   REMARKS
CINC-COVINGTON CLOUDY    33  26  75 N8        30.20S WCI  26
CINC-LUNKEN    MOCLDY    32  30  92 N6        30.23S WCI  26
HAMILTON       MOCLDY    31  28  89 N3        30.23R
DAYTON         MOCLDY    28  25  88 N6        30.22R WCI  22
WRIGHT-PAT AFB MOCLDY    30  27  88 N6        30.22R WCI  24
DAYTON GENERAL MOCLDY    30  26  85 N5        30.20R WCI  25
WILMINGTON     MOCLDY    31  27  85 N7        30.20R WCI  24
$$

OHZ036-037-039>041-045>050-054>059-063>069-073>076-082>088-290600-
  CENTRAL AND SOUTHEAST OHIO

CITY           SKY/WX    TMP DP  RH WIND       PRES   REMARKS
COLUMBUS       MOCLDY    31  26  82 N6        30.20R WCI  25
OSU AIRPORT    MOCLDY    30  25  81 NW6       30.19S WCI  24
BOLTON FIELD   NOT AVBL
RICKENBACK AFB NOT AVBL
NEWARK         CLOUDY    33  27  78 NW5       30.18S WCI  29
MARION         PTCLDY    28  24  85 W3        30.20R
LANCASTER      CLOUDY    34  29  82 N6        30.20R WCI  29
ZANESVILLE     CLOUDY    32  28  85 NW5       30.18R WCI  27
NEW PHILLY     CLOUDY    36  29  75 NW7       30.18S
$$



USA.gov is the U.S. government's official web portal to all federal, state and local government web resources and services.